[[{"header":{"parameterUnit":"m.s-1","parameterCategory":1,"la1":30.2991,"la2":30.254,"lo1":-89.0895,"lo2":-89.0444,"dx":0.0017,"dy":0.0017,"nx":28,"ny":28,"refTime":"2023-01-07T03:00:00:Z","depth":0,"parameterNumber":2,"parameterNumberName":"U-component_of_WINDS"},"data":[0,0,0,0,0,0,0,0,0,0,0,0,0,0,0,0,0,0,0,0,0,0,0,0,0,0,0,0,0,0,0,0,0,0,0,0,0,0,0,0,0,0,0,0,0,0,0,0,0,0,0,0,0,0,0,0,0,0,-1.6039,-1.6039,0,-1.6031,-1.6031,-1.6031,-1.5978,-1.5976,-1.5975,-1.5974,-1.5967,-1.5968,-1.5969,0,0,0,0,0,0,0,0,0,0,0,0,0,-1.6007,-1.6008,-1.6039,-1.6039,-1.6039,-1.6031,-1.6031,-1.6031,-1.5978,-1.5976,-1.5975,-1.5973,-1.5967,-1.5968,-1.5969,0,0,0,0,0,0,0,0,0,0,0,0,0,-1.6013,-1.6009,-1.6039,-1.6011,-1.6009,-1.6032,-1.6031,-1.6031,-1.5978,-1.5976,-1.5974,-1.5973,-1.5966,-1.5968,-1.5969,-1.6019,0,0,-1.5974,-1.5975,0,0,0,0,0,0,0,0,-1.6012,-1.6014,-1.6015,-1.6013,-1.601,-1.6003,-1.6018,-1.6027,-1.5979,-1.599,-1.5974,-1.5972,-1.5981,-1.5981,-1.5984,-1.6018,-1.6018,-1.5974,-1.5975,-1.5976,-1.5976,0,0,0,0,0,0,0,-1.6012,-1.6014,-1.6036,-1.6015,-1.6012,-1.5999,-1.5998,-1.6019,-1.5997,-1.5989,-1.5985,-1.5985,-1.5979,-1.5983,-1.5984,-1.6018,-1.5974,-1.5976,-1.5977,-1.5977,-1.6091,-1.6093,0,0,0,0,0,0,-1.6016,-1.6014,-1.6036,-1.6036,-1.6007,-1.6002,-1.6,-1.6008,-1.5996,-1.5992,-1.5986,-1.5982,-1.5981,-1.5982,-1.5983,-1.6038,-1.5976,-1.5977,-1.5978,-1.6089,-1.6091,-1.6093,0,0,0,0,0,0,-1.6015,-1.6018,-1.6036,-1.6024,-1.6025,-1.6004,-1.6013,-1.6009,-1.6012,-1.5994,-1.599,-1.5994,-1.5979,-1.5981,-1.601,-1.6037,-1.5978,-1.598,-1.6086,-1.6089,-1.6092,-1.615,0,0,0,0,0,0,-1.6014,-1.6018,-1.6036,-1.6025,-1.6026,-1.6063,-1.6015,-1.601,-1.6015,-1.6009,-1.6,-1.5997,-1.5978,-1.6008,-1.6011,-1.6038,-1.5981,-1.6084,-1.6088,-1.6091,-1.6145,-1.6155,-1.6163,0,0,0,0,0,-1.6013,-1.6053,-1.6038,-1.6041,-1.6048,-1.6065,-1.6066,-1.6043,-1.6017,-1.6035,-1.6024,-1.5997,-1.6034,-1.6011,-1.6015,-1.6043,-1.6082,-1.6087,-1.6091,-1.6142,-1.6153,-1.6162,0,0,0,0,0,0,-1.6069,-1.6051,-1.6034,-1.6071,-1.607,-1.6056,-1.6078,-1.6056,-1.6062,-1.6056,-1.6028,-1.6026,-1.6059,-1.6054,-1.6029,-1.6089,-1.6053,-1.6059,-1.6091,-1.6101,-1.611,-1.6109,-1.5982,0,0,0,0,0,-1.6086,-1.6101,-1.6084,-1.6119,-1.6119,-1.6099,-1.6105,-1.6088,-1.6085,-1.6085,-1.6075,-1.6075,-1.6086,-1.6094,-1.6103,-1.6146,-1.6142,-1.6167,-1.6175,-1.6182,-1.6187,-1.6207,-1.6217,-1.6109,-1.6109,-1.6109,0,0,-1.612,-1.6112,-1.6123,-1.613,-1.6127,-1.6142,-1.6099,-1.6117,-1.6128,-1.6088,-1.6113,-1.6107,-1.6104,-1.614,-1.6155,-1.6136,-1.6216,-1.6188,-1.6194,-1.6194,-1.6213,-1.6223,-1.6232,-1.6112,-1.6111,-1.6111,0,0,-1.619,-1.6187,-1.6214,-1.6212,-1.6208,-1.6194,-1.6201,-1.6191,-1.6184,-1.621,-1.6179,-1.6193,-1.6213,-1.6212,-1.6214,-1.6284,-1.626,-1.6289,-1.6332,-1.6353,-1.6361,-1.6368,-1.6392,-1.64,-1.6294,-1.6294,-1.6294,0,-1.6233,-1.6255,-1.6231,-1.6251,-1.6255,-1.6219,-1.6246,-1.6245,-1.6245,-1.6248,-1.6228,-1.6252,-1.6248,-1.6281,-1.6299,-1.6302,-1.6308,-1.6288,-1.6362,-1.6369,-1.6376,-1.6397,-1.6406,-1.6297,-1.6297,-1.6296,-1.6296,0,-1.6308,-1.6324,-1.6346,-1.6346,-1.6352,-1.6376,-1.6355,-1.6365,-1.6347,-1.6336,-1.6362,-1.6356,-1.6363,-1.6371,-1.6354,-1.6402,-1.639,-1.6367,-1.633,-1.639,-1.6409,-1.6418,-1.6302,-1.6301,-1.63,-1.6299,0,0,-1.6411,-1.6397,-1.6405,-1.6404,-1.6398,-1.6409,-1.6432,-1.6438,-1.6446,-1.6448,-1.6465,-1.6483,-1.6461,-1.6464,-1.6447,-1.6465,-1.6519,-1.6439,-1.6438,-1.6452,-1.657,-1.6586,-1.6596,-1.6504,-1.6505,-1.6507,-1.6569,0,-1.6476,-1.6512,-1.6491,-1.653,-1.6544,-1.6511,-1.653,-1.6528,-1.6519,-1.6529,-1.6519,-1.6531,-1.6502,-1.6503,-1.652,-1.6509,-1.6542,-1.6505,-1.6518,-1.6519,-1.6517,-1.6606,-1.6623,-1.6682,-1.6577,-1.6578,-1.6579,0,-1.6556,-1.656,-1.6601,-1.6591,-1.6596,-1.6613,-1.6617,-1.6628,-1.6625,-1.6617,-1.662,-1.6599,-1.662,-1.6586,-1.6614,-1.6589,-1.6594,-1.659,-1.6591,-1.6589,-1.6551,-1.6605,-1.6701,-1.6709,-1.6592,-1.6591,-1.659,0,-1.6624,-1.664,-1.6666,-1.6667,-1.6656,-1.6669,-1.6665,-1.6661,-1.6666,-1.667,-1.6673,-1.668,-1.6683,-1.6689,-1.667,-1.6647,-1.67,-1.6665,-1.6693,-1.6693,-1.6703,-1.6702,-1.6799,-1.6711,-1.6711,-1.6711,-1.6711,0,-1.6698,-1.6723,-1.6696,-1.6712,-1.6739,-1.6716,-1.6744,-1.6737,-1.6733,-1.6747,-1.672,-1.6733,-1.6708,-1.672,-1.6706,-1.673,-1.6733,-1.6726,-1.6721,-1.6727,-1.6727,-1.6727,-1.6722,-1.6713,-1.6713,-1.6712,-1.6712,0,-1.6777,-1.676,-1.6786,-1.6774,-1.6772,-1.6792,-1.6782,-1.6796,-1.6785,-1.6802,-1.6805,-1.6788,-1.68,-1.6782,-1.6793,-1.6783,-1.6816,-1.6807,-1.6816,-1.6813,-1.6841,-1.6837,-1.6939,-1.695,-1.6858,-1.6859,-1.6859,0,-1.6824,-1.6842,-1.6832,-1.6839,-1.6837,-1.6849,-1.6853,-1.6832,-1.6838,-1.6836,-1.685,-1.686,-1.6865,-1.6886,-1.6874,-1.6882,-1.6871,-1.6906,-1.6871,-1.6876,-1.6868,-1.6866,-1.6867,-1.6912,-1.6913,-1.6914,-1.6915,0,-1.6907,-1.6898,-1.6906,-1.6911,-1.6917,-1.692,-1.6921,-1.6929,-1.6905,-1.6914,-1.6925,-1.693,-1.694,-1.6949,-1.6954,-1.695,-1.6928,-1.6926,-1.6932,-1.6937,-1.6941,-1.6936,-1.6833,-1.6923,-1.6922,-1.6922,-1.6921,-1.6921,-1.697,-1.6984,-1.6979,-1.6988,-1.6987,-1.6989,-1.7001,-1.6991,-1.7,-1.7005,-1.6993,-1.7007,-1.7004,-1.7008,-1.7007,-1.7018,-1.7002,-1.7012,-1.7014,-1.7016,-1.7019,-1.6941,-1.7019,-1.7018,-1.7018,-1.7018,-1.7018,0,-1.705,-1.7045,-1.7054,-1.7056,-1.7063,-1.7043,-1.7043,-1.705,-1.7063,-1.7062,-1.7068,-1.7081,-1.709,-1.708,-1.7087,-1.7097,-1.7087,-1.71,-1.7097,-1.7096,-1.7034,-1.7026,-1.7107,-1.7107,-1.7107,-1.7107,-1.7107,-1.7107,-1.7092,-1.7115,-1.7105,-1.7127,-1.7122,-1.7135,-1.7137,-1.7138,-1.7137,-1.7152,-1.7159,-1.7152,-1.7147,-1.7153,-1.7161,-1.7158,-1.716,-1.7176,-1.7169,-1.711,-1.7101,-1.7093,-1.7085,-1.7177,-1.7177,-1.723,-1.723,-1.7231]},{"header":{"parameterUnit":"m.s-1","parameterCategory":1,"la1":30.2991,"la2":30.254,"lo1":-89.0895,"lo2":-89.0444,"dx":0.0017,"dy":0.0017,"nx":28,"ny":28,"refTime":"2023-01-07T03:00:00:Z","depth":0,"parameterNumber":3,"parameterNumberName":"V-component_of_WINDS"},"data":[0,0,0,0,0,0,0,0,0,0,0,0,0,0,0,0,0,0,0,0,0,0,0,0,0,0,0,0,0,0,0,0,0,0,0,0,0,0,0,0,0,0,0,0,0,0,0,0,0,0,0,0,0,0,0,0,0,0,2.3275,2.3275,0,2.3328,2.3328,2.3329,2.3391,2.3392,2.3393,2.3394,2.3446,2.3447,2.3447,0,0,0,0,0,0,0,0,0,0,0,0,0,2.3227,2.3228,2.3275,2.3275,2.3276,2.3328,2.3328,2.3329,2.3391,2.3392,2.3394,2.3395,2.3446,2.3447,2.3447,0,0,0,0,0,0,0,0,0,0,0,0,0,2.3261,2.3228,2.3275,2.3313,2.3317,2.3327,2.3328,2.3329,2.3391,2.3392,2.3394,2.3395,2.3446,2.3447,2.3447,2.3423,0,0,2.345,2.345,0,0,0,0,0,0,0,0,2.3259,2.3262,2.3307,2.3311,2.3315,2.3355,2.3331,2.3361,2.3391,2.3363,2.3394,2.3396,2.3415,2.3418,2.3425,2.3426,2.3428,2.345,2.345,2.3451,2.3451,0,0,0,0,0,0,0,2.3256,2.326,2.3296,2.3308,2.3313,2.3328,2.3334,2.3337,2.338,2.3366,2.337,2.3376,2.3417,2.3424,2.3426,2.3429,2.345,2.345,2.3451,2.3451,2.3415,2.3413,0,0,0,0,0,0,2.3248,2.3258,2.3294,2.3297,2.329,2.3328,2.3335,2.334,2.338,2.3388,2.3374,2.3378,2.3422,2.3425,2.3428,2.3405,2.3451,2.3451,2.3452,2.3416,2.3414,2.3413,0,0,0,0,0,0,2.3247,2.3251,2.3292,2.3279,2.3285,2.3327,2.3333,2.3341,2.3348,2.3387,2.3395,2.3373,2.3423,2.3427,2.3425,2.3407,2.3452,2.3452,2.3418,2.3416,2.3414,2.3356,0,0,0,0,0,0,2.3245,2.325,2.3241,2.3278,2.3286,2.3287,2.3332,2.3341,2.3349,2.3355,2.3388,2.3395,2.3425,2.3423,2.3425,2.3409,2.3453,2.342,2.3417,2.3414,2.3359,2.3352,2.3345,0,0,0,0,0,2.3243,2.3222,2.324,2.3244,2.3276,2.3286,2.3291,2.3326,2.3347,2.3339,2.3365,2.3394,2.3408,2.3422,2.3425,2.3409,2.3421,2.3418,2.3414,2.3363,2.3353,2.3346,0,0,0,0,0,0,2.3181,2.3227,2.3249,2.3238,2.3258,2.3297,2.3288,2.3314,2.3328,2.3332,2.3375,2.3382,2.3374,2.3391,2.3406,2.3389,2.3419,2.3416,2.3379,2.337,2.3363,2.336,2.3453,0,0,0,0,0,2.3166,2.3171,2.3211,2.3198,2.3207,2.3245,2.3251,2.3277,2.3298,2.3307,2.3332,2.3351,2.3361,2.3366,2.3376,2.3361,2.3371,2.3352,2.3345,2.3339,2.3337,2.3332,2.3325,2.3402,2.3402,2.3403,0,0,2.3135,2.3161,2.3161,2.3186,2.3205,2.3209,2.3252,2.3254,2.3258,2.3307,2.3307,2.3326,2.3351,2.3342,2.334,2.3356,2.3317,2.3335,2.333,2.3331,2.3328,2.3321,2.3314,2.34,2.3401,2.3401,0,0,2.3082,2.3101,2.3094,2.3112,2.3139,2.3165,2.3163,2.3198,2.3213,2.3214,2.3251,2.3256,2.327,2.3287,2.3297,2.3252,2.328,2.3254,2.3218,2.3213,2.3207,2.3202,2.3188,2.3182,2.3251,2.3251,2.325,0,2.304,2.3049,2.3087,2.3088,2.3098,2.3143,2.3137,2.3151,2.318,2.3187,2.3204,2.3225,2.3244,2.3242,2.3231,2.3237,2.3237,2.3251,2.3205,2.32,2.3196,2.3183,2.3177,2.3247,2.3248,2.3248,2.3248,0,2.2997,2.3003,2.2993,2.3022,2.3031,2.3028,2.3065,2.307,2.3095,2.3118,2.3119,2.3145,2.3162,2.3163,2.3186,2.3164,2.3174,2.3197,2.3229,2.3185,2.3173,2.3169,2.3243,2.3244,2.3245,2.3246,0,0,2.2907,2.2957,2.2953,2.2968,2.3002,2.3007,2.3005,2.3024,2.3028,2.3046,2.3047,2.3059,2.3082,2.3094,2.3119,2.3115,2.308,2.3139,2.3141,2.3129,2.306,2.3043,2.3037,2.3098,2.3097,2.3096,2.3058,0,2.2862,2.2865,2.2899,2.2892,2.2898,2.2941,2.2941,2.2961,2.2984,2.2992,2.3017,2.3025,2.3054,2.3061,2.3059,2.3084,2.3067,2.3087,2.3101,2.3101,2.3096,2.3031,2.3013,2.2976,2.3054,2.3053,2.3053,0,2.281,2.2827,2.2821,2.2856,2.286,2.2859,2.288,2.2887,2.2912,2.2928,2.2942,2.2971,2.2973,2.3002,2.3006,2.302,2.3027,2.304,2.304,2.3044,2.3075,2.3035,2.2965,2.296,2.3045,2.3046,2.3047,0,2.2748,2.2769,2.2768,2.2779,2.282,2.2819,2.2835,2.2862,2.2871,2.2888,2.2895,2.2911,2.2921,2.2933,2.2966,2.2984,2.2968,2.2998,2.2983,2.2982,2.2979,2.2979,2.2911,2.298,2.298,2.298,2.298,0,2.2695,2.269,2.2742,2.2741,2.2738,2.2777,2.2772,2.2793,2.2816,2.2821,2.2858,2.2862,2.2904,2.2913,2.2939,2.294,2.2943,2.2958,2.2965,2.2956,2.2954,2.2963,2.2967,2.2978,2.2979,2.2979,2.2979,0,2.2626,2.266,2.2663,2.2702,2.2711,2.2707,2.274,2.2742,2.2767,2.2773,2.2776,2.2815,2.2828,2.2862,2.2882,2.29,2.2894,2.2906,2.2886,2.2891,2.2875,2.2877,2.2811,2.2806,2.2875,2.2875,2.2874,0,2.2592,2.2589,2.2628,2.2635,2.265,2.266,2.267,2.2708,2.2717,2.2746,2.2745,2.276,2.2775,2.2793,2.2823,2.2839,2.2853,2.2829,2.2856,2.2848,2.2856,2.2857,2.2858,2.2824,2.2823,2.2822,2.2822,0,2.2528,2.2545,2.2558,2.2578,2.2589,2.2606,2.2625,2.2628,2.2671,2.2679,2.2693,2.2704,2.2726,2.2742,2.2763,2.2781,2.2809,2.2813,2.2811,2.2802,2.2792,2.28,2.2873,2.2815,2.2815,2.2816,2.2816,2.2816,2.2477,2.2477,2.2505,2.2519,2.2538,2.2555,2.2559,2.2585,2.2597,2.2619,2.264,2.2653,2.2678,2.271,2.2726,2.2736,2.275,2.2746,2.2746,2.2745,2.2742,2.2788,2.2739,2.274,2.274,2.274,2.274,0,2.2417,2.2437,2.2449,2.2476,2.2487,2.2512,2.2535,2.2543,2.2553,2.2575,2.2589,2.2606,2.2621,2.2652,2.2671,2.2673,2.2687,2.2677,2.2678,2.2682,2.2726,2.2728,2.2666,2.2666,2.2666,2.2666,2.2666,2.2666,2.2387,2.239,2.2411,2.2424,2.2444,2.2457,2.2468,2.2484,2.2502,2.252,2.2533,2.2553,2.258,2.26,2.2616,2.2625,2.2631,2.2617,2.2631,2.2672,2.2679,2.2686,2.2687,2.2618,2.2618,2.2586,2.2586,2.2586]}]]